Year,Month,Day,Hour,Minute,Value (Times are PST for windspeed in km/hr)
2009,03,31,00,00,0.00
2009,03,31,00,01,0.00
2009,03,31,00,02,0.10
2009,03,31,00,03,0.00
2009,03,31,00,04,1.50
2009,03,31,00,05,3.30
2009,03,31,00,06,4.60
2009,03,31,00,07,4.90
2009,03,31,00,08,3.10
2009,03,31,00,09,3.00
2009,03,31,00,10,2.40
2009,03,31,00,11,3.80
2009,03,31,00,12,2.30
2009,03,31,00,13,1.20
2009,03,31,00,14,1.40
2009,03,31,00,15,0.00
2009,03,31,00,16,2.10
2009,03,31,00,17,3.90
2009,03,31,00,18,3.10
2009,03,31,00,19,0.40
2009,03,31,00,20,1.20
2009,03,31,00,21,1.10
2009,03,31,00,22,0.90
2009,03,31,00,23,0.80
2009,03,31,00,24,0.00
2009,03,31,00,25,2.50
2009,03,31,00,26,3.80
2009,03,31,00,27,3.40
2009,03,31,00,28,2.40
2009,03,31,00,29,1.00
2009,03,31,00,30,0.00
2009,03,31,00,31,3.40
2009,03,31,00,32,3.50
2009,03,31,00,33,2.30
2009,03,31,00,34,2.50
2009,03,31,00,35,0.90
2009,03,31,00,36,0.00
2009,03,31,00,37,0.00
2009,03,31,00,38,3.40
2009,03,31,00,39,5.20
2009,03,31,00,40,4.10
2009,03,31,00,41,9.00
2009,03,31,00,42,4.60
2009,03,31,00,43,4.50
2009,03,31,00,44,3.80
2009,03,31,00,45,7.90
2009,03,31,00,46,13.00
2009,03,31,00,47,7.80
2009,03,31,00,48,7.70
2009,03,31,00,49,4.90
2009,03,31,00,50,4.80
2009,03,31,00,51,5.10
2009,03,31,00,52,3.30
2009,03,31,00,53,1.00
2009,03,31,00,54,1.50
2009,03,31,00,55,3.20
2009,03,31,00,56,4.10
2009,03,31,00,57,4.30
2009,03,31,00,58,4.60
2009,03,31,00,59,6.90
2009,03,31,01,00,13.20
2009,03,31,01,01,11.40
2009,03,31,01,02,8.50
2009,03,31,01,03,6.70
2009,03,31,01,04,4.00
2009,03,31,01,05,4.70
2009,03,31,01,06,5.30
2009,03,31,01,07,6.30
2009,03,31,01,08,6.70
2009,03,31,01,09,3.10
2009,03,31,01,10,3.10
2009,03,31,01,11,6.20
2009,03,31,01,12,8.00
2009,03,31,01,13,6.50
2009,03,31,01,14,7.70
2009,03,31,01,15,4.70
2009,03,31,01,16,2.20
2009,03,31,01,17,0.00
2009,03,31,01,18,0.10
2009,03,31,01,19,5.30
2009,03,31,01,20,9.10
2009,03,31,01,21,7.10
2009,03,31,01,22,4.90
2009,03,31,01,23,3.70
2009,03,31,01,24,0.10
2009,03,31,01,25,0.60
2009,03,31,01,26,1.50
2009,03,31,01,27,1.20
2009,03,31,01,28,2.10
2009,03,31,01,29,0.70
2009,03,31,01,30,0.40
2009,03,31,01,31,1.20
2009,03,31,01,32,4.70
2009,03,31,01,33,5.20
2009,03,31,01,34,4.00
2009,03,31,01,35,1.30
2009,03,31,01,36,2.40
2009,03,31,01,37,3.00
2009,03,31,01,38,4.50
2009,03,31,01,39,3.00
2009,03,31,01,40,2.20
2009,03,31,01,41,1.30
2009,03,31,01,42,1.30
2009,03,31,01,43,1.00
2009,03,31,01,44,5.40
2009,03,31,01,45,5.70
2009,03,31,01,46,6.30
2009,03,31,01,47,6.40
2009,03,31,01,48,6.50
2009,03,31,01,49,5.40
2009,03,31,01,50,6.40
2009,03,31,01,51,5.10
2009,03,31,01,52,0.20
2009,03,31,01,53,0.60
2009,03,31,01,54,1.30
2009,03,31,01,55,4.70
2009,03,31,01,56,8.60
2009,03,31,01,57,10.30
2009,03,31,01,58,12.60
2009,03,31,01,59,6.40
2009,03,31,02,00,5.60
2009,03,31,02,01,7.00
2009,03,31,02,02,11.90
2009,03,31,02,03,5.50
2009,03,31,02,04,7.20
2009,03,31,02,05,7.90
2009,03,31,02,06,12.30
2009,03,31,02,07,14.20
2009,03,31,02,08,0.40
2009,03,31,02,09,3.30
2009,03,31,02,10,6.30
2009,03,31,02,11,5.20
2009,03,31,02,12,6.50
2009,03,31,02,13,1.80
2009,03,31,02,14,4.20
2009,03,31,02,15,7.20
2009,03,31,02,16,9.90
2009,03,31,02,17,5.60
2009,03,31,02,18,3.30
2009,03,31,02,19,1.90
2009,03,31,02,20,3.40
2009,03,31,02,21,3.40
2009,03,31,02,22,3.90
2009,03,31,02,23,6.20
2009,03,31,02,24,7.30
2009,03,31,02,25,4.40
2009,03,31,02,26,5.60
2009,03,31,02,27,8.70
2009,03,31,02,28,8.40
2009,03,31,02,29,11.90
2009,03,31,02,30,9.70
2009,03,31,02,31,8.90
2009,03,31,02,32,4.70
2009,03,31,02,33,1.40
2009,03,31,02,34,1.30
2009,03,31,02,35,1.00
2009,03,31,02,36,0.00
2009,03,31,02,37,0.00
2009,03,31,02,38,0.00
2009,03,31,02,39,1.90
2009,03,31,02,40,3.80
2009,03,31,02,41,4.60
2009,03,31,02,42,4.70
2009,03,31,02,43,5.50
2009,03,31,02,44,3.20
2009,03,31,02,45,8.60
2009,03,31,02,46,4.70
2009,03,31,02,47,2.70
2009,03,31,02,48,2.90
2009,03,31,02,49,4.10
2009,03,31,02,50,4.30
2009,03,31,02,51,6.90
2009,03,31,02,52,6.70
2009,03,31,02,53,6.50
2009,03,31,02,54,8.10
2009,03,31,02,55,6.80
2009,03,31,02,56,6.80
2009,03,31,02,57,7.10
2009,03,31,02,58,6.20
2009,03,31,02,59,7.80
2009,03,31,03,00,5.70
2009,03,31,03,01,3.30
2009,03,31,03,02,0.10
2009,03,31,03,03,3.60
2009,03,31,03,04,4.10
2009,03,31,03,05,7.90
2009,03,31,03,06,4.50
2009,03,31,03,07,7.60
2009,03,31,03,08,10.90
2009,03,31,03,09,6.30
2009,03,31,03,10,5.50
2009,03,31,03,11,6.60
2009,03,31,03,12,5.50
2009,03,31,03,13,4.80
2009,03,31,03,14,5.90
2009,03,31,03,15,4.60
2009,03,31,03,16,3.70
2009,03,31,03,17,2.60
2009,03,31,03,18,2.60
2009,03,31,03,19,3.60
2009,03,31,03,20,1.50
2009,03,31,03,21,3.30
2009,03,31,03,22,2.60
2009,03,31,03,23,2.50
2009,03,31,03,24,6.60
2009,03,31,03,25,4.30
2009,03,31,03,26,2.50
2009,03,31,03,27,3.20
2009,03,31,03,28,2.70
2009,03,31,03,29,2.00
2009,03,31,03,30,0.00
2009,03,31,03,31,1.70
2009,03,31,03,32,0.00
2009,03,31,03,33,0.00
2009,03,31,03,34,3.00
2009,03,31,03,35,3.40
2009,03,31,03,36,0.70
2009,03,31,03,37,0.00
2009,03,31,03,38,1.80
2009,03,31,03,39,1.30
2009,03,31,03,40,4.10
2009,03,31,03,41,2.30
2009,03,31,03,42,1.60
2009,03,31,03,43,2.10
2009,03,31,03,44,2.40
2009,03,31,03,45,5.00
2009,03,31,03,46,1.40
2009,03,31,03,47,4.90
2009,03,31,03,48,4.70
2009,03,31,03,49,2.50
2009,03,31,03,50,3.00
2009,03,31,03,51,3.40
2009,03,31,03,52,4.00
2009,03,31,03,53,4.90
2009,03,31,03,54,4.00
2009,03,31,03,55,1.90
2009,03,31,03,56,1.00
2009,03,31,03,57,0.60
2009,03,31,03,58,2.40
2009,03,31,03,59,3.30
2009,03,31,04,00,3.40
2009,03,31,04,01,2.90
2009,03,31,04,02,5.10
2009,03,31,04,03,7.50
2009,03,31,04,04,6.60
2009,03,31,04,05,6.70
2009,03,31,04,06,3.70
2009,03,31,04,07,3.40
2009,03,31,04,08,2.80
2009,03,31,04,09,2.80
2009,03,31,04,10,3.70
2009,03,31,04,11,2.60
2009,03,31,04,12,0.00
2009,03,31,04,13,1.00
2009,03,31,04,14,3.00
2009,03,31,04,15,2.90
2009,03,31,04,16,2.30
2009,03,31,04,17,0.40
2009,03,31,04,18,0.40
2009,03,31,04,19,2.10
2009,03,31,04,20,0.10
2009,03,31,04,21,2.60
2009,03,31,04,22,1.60
2009,03,31,04,23,4.50
2009,03,31,04,24,5.40
2009,03,31,04,25,8.50
2009,03,31,04,26,7.30
2009,03,31,04,27,5.30
2009,03,31,04,28,5.80
2009,03,31,04,29,4.00
2009,03,31,04,30,1.10
2009,03,31,04,31,1.70
2009,03,31,04,32,5.40
2009,03,31,04,33,3.80
2009,03,31,04,34,3.10
2009,03,31,04,35,3.20
2009,03,31,04,36,4.60
2009,03,31,04,37,5.20
2009,03,31,04,38,4.10
2009,03,31,04,39,3.40
2009,03,31,04,40,2.90
2009,03,31,04,41,3.40
2009,03,31,04,42,3.40
2009,03,31,04,43,3.60
2009,03,31,04,44,4.20
2009,03,31,04,45,7.10
2009,03,31,04,46,6.40
2009,03,31,04,47,2.90
2009,03,31,04,48,4.80
2009,03,31,04,49,5.90
2009,03,31,04,50,6.70
2009,03,31,04,51,4.10
2009,03,31,04,52,2.30
2009,03,31,04,53,3.20
2009,03,31,04,54,1.50
2009,03,31,04,55,3.00
2009,03,31,04,56,0.50
2009,03,31,04,57,1.50
2009,03,31,04,58,0.60
2009,03,31,04,59,2.30
2009,03,31,05,00,1.40
2009,03,31,05,01,1.80
2009,03,31,05,02,0.50
2009,03,31,05,03,2.40
2009,03,31,05,04,2.80
2009,03,31,05,05,0.40
2009,03,31,05,06,1.40
2009,03,31,05,07,0.00
2009,03,31,05,08,0.00
2009,03,31,05,09,0.50
2009,03,31,05,10,1.60
2009,03,31,05,11,0.00
2009,03,31,05,12,1.40
2009,03,31,05,13,0.50
2009,03,31,05,14,0.10
2009,03,31,05,15,0.90
2009,03,31,05,16,0.00
2009,03,31,05,17,0.00
2009,03,31,05,18,0.00
2009,03,31,05,19,1.00
2009,03,31,05,20,0.90
2009,03,31,05,21,0.20
2009,03,31,05,22,1.20
2009,03,31,05,23,6.20
2009,03,31,05,24,1.60
2009,03,31,05,25,0.60
2009,03,31,05,26,0.80
2009,03,31,05,27,0.40
2009,03,31,05,28,0.00
2009,03,31,05,29,0.00
2009,03,31,05,30,0.00
2009,03,31,05,31,0.00
2009,03,31,05,32,0.30
2009,03,31,05,33,0.00
2009,03,31,05,34,0.00
2009,03,31,05,35,0.00
2009,03,31,05,36,0.00
2009,03,31,05,37,0.00
2009,03,31,05,38,0.00
2009,03,31,05,39,0.00
2009,03,31,05,40,0.10
2009,03,31,05,41,1.80
2009,03,31,05,42,0.00
2009,03,31,05,43,4.60
2009,03,31,05,44,3.40
2009,03,31,05,45,1.70
2009,03,31,05,46,4.90
2009,03,31,05,47,4.90
2009,03,31,05,48,5.50
2009,03,31,05,49,3.50
2009,03,31,05,50,0.40
2009,03,31,05,51,3.30
2009,03,31,05,52,5.60
2009,03,31,05,53,4.30
2009,03,31,05,54,2.90
2009,03,31,05,55,4.60
2009,03,31,05,56,1.40
2009,03,31,05,57,1.50
2009,03,31,05,58,4.30
2009,03,31,05,59,4.50
2009,03,31,06,00,5.80
2009,03,31,06,01,2.60
2009,03,31,06,02,5.20
2009,03,31,06,03,3.70
2009,03,31,06,04,3.20
2009,03,31,06,05,5.50
2009,03,31,06,06,2.70
2009,03,31,06,07,2.80
2009,03,31,06,08,2.70
2009,03,31,06,09,4.10
2009,03,31,06,10,6.80
2009,03,31,06,11,5.10
2009,03,31,06,12,6.90
2009,03,31,06,13,4.80
2009,03,31,06,14,11.40
2009,03,31,06,15,14.80
2009,03,31,06,16,16.50
2009,03,31,06,17,9.40
2009,03,31,06,18,15.80
2009,03,31,06,19,8.90
2009,03,31,06,20,14.40
2009,03,31,06,21,9.20
2009,03,31,06,22,10.70
2009,03,31,06,23,20.50
2009,03,31,06,24,18.30
2009,03,31,06,25,13.10
2009,03,31,06,26,8.50
2009,03,31,06,27,9.00
2009,03,31,06,28,9.90
2009,03,31,06,29,9.00
2009,03,31,06,30,6.90
2009,03,31,06,31,11.30
2009,03,31,06,32,6.60
2009,03,31,06,33,12.20
2009,03,31,06,34,14.10
2009,03,31,06,35,8.50
2009,03,31,06,36,6.60
2009,03,31,06,37,3.70
2009,03,31,06,38,11.50
2009,03,31,06,39,7.20
2009,03,31,06,40,16.50
2009,03,31,06,41,11.20
2009,03,31,06,42,7.10
2009,03,31,06,43,8.20
2009,03,31,06,44,6.10
2009,03,31,06,45,10.10
2009,03,31,06,46,6.70
2009,03,31,06,47,13.70
2009,03,31,06,48,8.90
2009,03,31,06,49,9.80
2009,03,31,06,50,14.70
2009,03,31,06,51,7.20
2009,03,31,06,52,9.40
2009,03,31,06,53,6.70
2009,03,31,06,54,8.30
2009,03,31,06,55,8.90
2009,03,31,06,56,12.60
2009,03,31,06,57,19.90
2009,03,31,06,58,11.90
2009,03,31,06,59,13.00
2009,03,31,07,00,15.00
2009,03,31,07,01,7.60
2009,03,31,07,02,15.20
2009,03,31,07,03,10.30
2009,03,31,07,04,11.20
2009,03,31,07,05,14.80
2009,03,31,07,06,15.90
2009,03,31,07,07,13.90
2009,03,31,07,08,16.20
2009,03,31,07,09,7.50
2009,03,31,07,10,18.00
2009,03,31,07,11,24.40
2009,03,31,07,12,23.80
2009,03,31,07,13,23.70
2009,03,31,07,14,27.00
2009,03,31,07,15,30.00
2009,03,31,07,16,37.90
2009,03,31,07,17,35.60
2009,03,31,07,18,31.00
2009,03,31,07,19,32.60
2009,03,31,07,20,35.60
2009,03,31,07,21,41.80
2009,03,31,07,22,30.10
2009,03,31,07,23,35.80
2009,03,31,07,24,26.10
2009,03,31,07,25,26.60
2009,03,31,07,26,25.80
2009,03,31,07,27,26.60
2009,03,31,07,28,28.20
2009,03,31,07,29,35.60
2009,03,31,07,30,34.90
2009,03,31,07,31,24.00
2009,03,31,07,32,28.70
2009,03,31,07,33,26.30
2009,03,31,07,34,28.20
2009,03,31,07,35,27.40
2009,03,31,07,36,18.40
2009,03,31,07,37,25.10
2009,03,31,07,38,23.80
2009,03,31,07,39,17.90
2009,03,31,07,40,26.00
2009,03,31,07,41,20.40
2009,03,31,07,42,23.00
2009,03,31,07,43,23.00
2009,03,31,07,44,24.20
2009,03,31,07,45,21.40
2009,03,31,07,46,31.70
2009,03,31,07,47,22.20
2009,03,31,07,48,24.90
2009,03,31,07,49,22.40
2009,03,31,07,50,23.20
2009,03,31,07,51,21.30
2009,03,31,07,52,18.90
2009,03,31,07,53,17.60
2009,03,31,07,54,26.20
2009,03,31,07,55,21.20
2009,03,31,07,56,22.30
2009,03,31,07,57,24.30
2009,03,31,07,58,23.60
2009,03,31,07,59,27.00
2009,03,31,08,00,21.40
2009,03,31,08,01,15.90
2009,03,31,08,02,20.40
2009,03,31,08,03,13.80
2009,03,31,08,04,16.80
2009,03,31,08,05,13.30
2009,03,31,08,06,12.80
2009,03,31,08,07,18.20
2009,03,31,08,08,16.20
2009,03,31,08,09,13.30
2009,03,31,08,10,17.60
2009,03,31,08,11,21.60
2009,03,31,08,12,13.80
2009,03,31,08,13,7.80
2009,03,31,08,14,12.20
2009,03,31,08,15,20.10
2009,03,31,08,16,11.30
2009,03,31,08,17,8.90
2009,03,31,08,18,11.60
2009,03,31,08,19,12.10
2009,03,31,08,20,15.30
2009,03,31,08,21,11.20
2009,03,31,08,22,14.00
2009,03,31,08,23,12.20
2009,03,31,08,24,10.10
2009,03,31,08,25,14.10
2009,03,31,08,26,15.50
2009,03,31,08,27,12.30
2009,03,31,08,28,7.60
2009,03,31,08,29,14.10
2009,03,31,08,30,16.90
2009,03,31,08,31,15.70
2009,03,31,08,32,14.10
2009,03,31,08,33,18.30
2009,03,31,08,34,16.90
2009,03,31,08,35,12.40
2009,03,31,08,36,17.20
2009,03,31,08,37,6.50
2009,03,31,08,38,12.10
2009,03,31,08,39,6.10
2009,03,31,08,40,8.70
2009,03,31,08,41,3.60
2009,03,31,08,42,3.40
2009,03,31,08,43,5.20
2009,03,31,08,44,6.50
2009,03,31,08,45,7.70
2009,03,31,08,46,4.90
2009,03,31,08,47,3.60
2009,03,31,08,48,9.40
2009,03,31,08,49,5.70
2009,03,31,08,50,6.10
2009,03,31,08,51,4.80
2009,03,31,08,52,5.80
2009,03,31,08,53,9.30
2009,03,31,08,54,11.70
2009,03,31,08,55,8.00
2009,03,31,08,56,7.90
2009,03,31,08,57,6.20
2009,03,31,08,58,8.00
2009,03,31,08,59,12.70
2009,03,31,09,00,4.20
2009,03,31,09,01,9.80
2009,03,31,09,02,8.30
2009,03,31,09,03,6.00
2009,03,31,09,04,13.20
2009,03,31,09,05,9.60
2009,03,31,09,06,1.10
2009,03,31,09,07,2.60
2009,03,31,09,08,2.80
2009,03,31,09,09,3.00
2009,03,31,09,10,6.10
2009,03,31,09,11,6.40
2009,03,31,09,12,9.70
2009,03,31,09,13,5.10
2009,03,31,09,14,4.10
2009,03,31,09,15,2.20
2009,03,31,09,16,6.50
2009,03,31,09,17,3.10
2009,03,31,09,18,3.10
2009,03,31,09,19,6.70
2009,03,31,09,20,7.50
2009,03,31,09,21,5.80
2009,03,31,09,22,6.60
2009,03,31,09,23,4.00
2009,03,31,09,24,5.90
2009,03,31,09,25,3.10
2009,03,31,09,26,3.40
2009,03,31,09,27,6.00
2009,03,31,09,28,7.80
2009,03,31,09,29,7.90
2009,03,31,09,30,10.40
2009,03,31,09,31,11.80
2009,03,31,09,32,6.30
2009,03,31,09,33,6.70
2009,03,31,09,34,4.30
2009,03,31,09,35,6.00
2009,03,31,09,36,3.40
2009,03,31,09,37,7.40
2009,03,31,09,38,5.40
2009,03,31,09,39,5.10
2009,03,31,09,40,7.60
2009,03,31,09,41,8.30
2009,03,31,09,42,7.80
2009,03,31,09,43,6.60
2009,03,31,09,44,6.20
2009,03,31,09,45,4.70
2009,03,31,09,46,7.70
2009,03,31,09,47,8.00
2009,03,31,09,48,3.70
2009,03,31,09,49,3.60
2009,03,31,09,50,3.50
2009,03,31,09,51,6.90
2009,03,31,09,52,5.50
2009,03,31,09,53,8.60
2009,03,31,09,54,6.10
2009,03,31,09,55,9.00
2009,03,31,09,56,12.20
2009,03,31,09,57,6.40
2009,03,31,09,58,5.50
2009,03,31,09,59,5.80
2009,03,31,10,00,9.10
2009,03,31,10,01,8.00
2009,03,31,10,02,7.50
2009,03,31,10,03,7.90
2009,03,31,10,04,7.60
2009,03,31,10,05,11.80
2009,03,31,10,06,10.50
2009,03,31,10,07,5.50
2009,03,31,10,08,3.80
2009,03,31,10,09,3.20
2009,03,31,10,10,12.50
2009,03,31,10,11,13.10
2009,03,31,10,12,12.20
2009,03,31,10,13,9.30
2009,03,31,10,14,9.60
2009,03,31,10,15,11.40
2009,03,31,10,16,6.90
2009,03,31,10,17,8.60
2009,03,31,10,18,6.60
2009,03,31,10,19,9.30
2009,03,31,10,20,9.50
2009,03,31,10,21,12.70
2009,03,31,10,22,14.00
2009,03,31,10,23,14.10
2009,03,31,10,24,8.10
2009,03,31,10,25,11.90
2009,03,31,10,26,15.20
2009,03,31,10,27,10.90
2009,03,31,10,28,6.90
2009,03,31,10,29,4.30
2009,03,31,10,30,9.50
2009,03,31,10,31,9.70
2009,03,31,10,32,12.60
2009,03,31,10,33,10.30
2009,03,31,10,34,6.60
2009,03,31,10,35,5.70
2009,03,31,10,36,12.20
2009,03,31,10,37,10.40
2009,03,31,10,38,7.00
2009,03,31,10,39,7.40
2009,03,31,10,40,9.60
2009,03,31,10,41,9.60
2009,03,31,10,42,6.00
2009,03,31,10,43,11.90
2009,03,31,10,44,15.90
2009,03,31,10,45,11.90
2009,03,31,10,46,11.10
2009,03,31,10,47,6.50
2009,03,31,10,48,18.10
2009,03,31,10,49,11.10
2009,03,31,10,50,11.70
2009,03,31,10,51,13.70
2009,03,31,10,52,16.20
2009,03,31,10,53,15.10
2009,03,31,10,54,13.40
2009,03,31,10,55,9.40
2009,03,31,10,56,13.60
2009,03,31,10,57,11.10
2009,03,31,10,58,16.40
2009,03,31,10,59,11.20
2009,03,31,11,00,16.90
2009,03,31,11,01,13.90
2009,03,31,11,02,18.70
2009,03,31,11,03,14.10
2009,03,31,11,04,14.80
2009,03,31,11,05,13.60
2009,03,31,11,06,11.50
2009,03,31,11,07,16.30
2009,03,31,11,08,27.00
2009,03,31,11,09,19.10
2009,03,31,11,10,27.80
2009,03,31,11,11,11.30
2009,03,31,11,12,22.10
2009,03,31,11,13,8.70
2009,03,31,11,14,13.20
2009,03,31,11,15,14.00
2009,03,31,11,16,14.70
2009,03,31,11,17,16.60
2009,03,31,11,18,11.50
2009,03,31,11,19,13.50
2009,03,31,11,20,16.30
2009,03,31,11,21,17.90
2009,03,31,11,22,19.40
2009,03,31,11,23,18.60
2009,03,31,11,24,13.90
2009,03,31,11,25,19.00
2009,03,31,11,26,24.00
2009,03,31,11,27,16.50
2009,03,31,11,28,16.60
2009,03,31,11,29,18.40
2009,03,31,11,30,16.00
2009,03,31,11,31,22.90
2009,03,31,11,32,19.50
2009,03,31,11,33,21.10
2009,03,31,11,34,12.70
2009,03,31,11,35,23.60
2009,03,31,11,36,18.10
2009,03,31,11,37,17.70
2009,03,31,11,38,15.60
2009,03,31,11,39,18.00
2009,03,31,11,40,21.40
2009,03,31,11,41,21.70
2009,03,31,11,42,20.90
2009,03,31,11,43,24.20
2009,03,31,11,44,21.20
2009,03,31,11,45,21.60
2009,03,31,11,46,22.00
2009,03,31,11,47,16.80
2009,03,31,11,48,21.70
2009,03,31,11,49,20.20
2009,03,31,11,50,26.20
2009,03,31,11,51,14.00
2009,03,31,11,52,17.50
2009,03,31,11,53,17.30
2009,03,31,11,54,20.60
2009,03,31,11,55,24.70
2009,03,31,11,56,22.50
2009,03,31,11,57,18.70
2009,03,31,11,58,22.30
2009,03,31,11,59,31.40
2009,03,31,12,00,25.50
2009,03,31,12,01,22.60
2009,03,31,12,02,18.90
2009,03,31,12,03,16.80
2009,03,31,12,04,33.00
2009,03,31,12,05,18.20
2009,03,31,12,06,32.70
2009,03,31,12,07,33.70
2009,03,31,12,08,24.30
2009,03,31,12,09,27.70
2009,03,31,12,10,20.60
2009,03,31,12,11,21.80
2009,03,31,12,12,29.50
2009,03,31,12,13,22.60
2009,03,31,12,14,15.60
2009,03,31,12,15,20.90
2009,03,31,12,16,22.40
2009,03,31,12,17,22.00
2009,03,31,12,18,16.90
2009,03,31,12,19,22.30
2009,03,31,12,20,20.30
2009,03,31,12,21,24.70
2009,03,31,12,22,21.70
2009,03,31,12,23,22.20
2009,03,31,12,24,26.20
2009,03,31,12,25,21.90
2009,03,31,12,26,19.80
2009,03,31,12,27,19.50
2009,03,31,12,28,19.00
2009,03,31,12,29,31.50
2009,03,31,12,30,24.40
2009,03,31,12,31,26.10
2009,03,31,12,32,32.00
2009,03,31,12,33,28.60
2009,03,31,12,34,22.80
2009,03,31,12,35,24.50
2009,03,31,12,36,19.80
2009,03,31,12,37,23.50
2009,03,31,12,38,27.20
2009,03,31,12,39,30.20
2009,03,31,12,40,21.70
2009,03,31,12,41,18.00
2009,03,31,12,42,21.00
2009,03,31,12,43,31.30
2009,03,31,12,44,27.20
2009,03,31,12,45,21.90
2009,03,31,12,46,22.20
2009,03,31,12,47,22.30
2009,03,31,12,48,28.10
2009,03,31,12,49,29.30
2009,03,31,12,50,16.80
2009,03,31,12,51,25.30
2009,03,31,12,52,27.50
2009,03,31,12,53,21.30
2009,03,31,12,54,23.10
2009,03,31,12,55,24.00
2009,03,31,12,56,19.80
2009,03,31,12,57,18.10
2009,03,31,12,58,19.10
2009,03,31,12,59,25.60
2009,03,31,13,00,20.70
2009,03,31,13,01,21.00
2009,03,31,13,02,22.70
2009,03,31,13,03,21.30
2009,03,31,13,04,21.30
2009,03,31,13,05,25.40
2009,03,31,13,06,30.30
2009,03,31,13,07,25.70
2009,03,31,13,08,30.40
2009,03,31,13,09,29.50
2009,03,31,13,10,24.50
2009,03,31,13,11,19.90
2009,03,31,13,12,20.20
2009,03,31,13,13,22.10
2009,03,31,13,14,20.10
2009,03,31,13,15,35.50
2009,03,31,13,16,34.00
2009,03,31,13,17,27.20
2009,03,31,13,18,23.60
2009,03,31,13,19,20.20
2009,03,31,13,20,30.00
2009,03,31,13,21,23.10
2009,03,31,13,22,20.80
2009,03,31,13,23,31.50
2009,03,31,13,24,27.00
2009,03,31,13,25,24.00
2009,03,31,13,26,24.30
2009,03,31,13,27,25.40
2009,03,31,13,28,31.10
2009,03,31,13,29,16.60
2009,03,31,13,30,20.50
2009,03,31,13,31,24.80
2009,03,31,13,32,23.50
2009,03,31,13,33,20.50
2009,03,31,13,34,23.30
2009,03,31,13,35,25.00
2009,03,31,13,36,26.30
2009,03,31,13,37,28.90
2009,03,31,13,38,25.00
2009,03,31,13,39,39.10
2009,03,31,13,40,23.90
2009,03,31,13,41,25.90
2009,03,31,13,42,22.40
2009,03,31,13,43,32.00
2009,03,31,13,44,18.20
2009,03,31,13,45,25.30
2009,03,31,13,46,29.60
2009,03,31,13,47,28.20
2009,03,31,13,48,30.70
2009,03,31,13,49,23.30
2009,03,31,13,50,25.70
2009,03,31,13,51,21.50
2009,03,31,13,52,27.10
2009,03,31,13,53,25.40
2009,03,31,13,54,30.40
2009,03,31,13,55,32.40
2009,03,31,13,56,27.60
2009,03,31,13,57,24.40
2009,03,31,13,58,24.60
2009,03,31,13,59,27.30
2009,03,31,14,00,32.30
2009,03,31,14,01,35.50
2009,03,31,14,02,29.20
2009,03,31,14,03,24.80
2009,03,31,14,04,33.40
2009,03,31,14,05,22.90
2009,03,31,14,06,32.30
2009,03,31,14,07,30.30
2009,03,31,14,08,24.70
2009,03,31,14,09,26.30
2009,03,31,14,10,21.00
2009,03,31,14,11,26.20
2009,03,31,14,12,28.60
2009,03,31,14,13,27.00
2009,03,31,14,14,25.20
2009,03,31,14,15,24.70
2009,03,31,14,16,30.20
2009,03,31,14,17,30.50
2009,03,31,14,18,25.20
2009,03,31,14,19,30.70
2009,03,31,14,20,25.50
2009,03,31,14,21,34.20
2009,03,31,14,22,32.50
2009,03,31,14,23,27.00
2009,03,31,14,24,30.90
2009,03,31,14,25,29.20
2009,03,31,14,26,31.50
2009,03,31,14,27,36.70
2009,03,31,14,28,27.60
2009,03,31,14,29,26.30
2009,03,31,14,30,28.30
2009,03,31,14,31,26.80
2009,03,31,14,32,31.10
2009,03,31,14,33,25.30
2009,03,31,14,34,27.30
2009,03,31,14,35,30.20
2009,03,31,14,36,35.40
2009,03,31,14,37,26.60
2009,03,31,14,38,21.80
2009,03,31,14,39,19.30
2009,03,31,14,40,28.00
2009,03,31,14,41,21.80
2009,03,31,14,42,25.40
2009,03,31,14,43,21.30
2009,03,31,14,44,28.90
2009,03,31,14,45,29.70
2009,03,31,14,46,20.40
2009,03,31,14,47,25.10
2009,03,31,14,48,29.30
2009,03,31,14,49,25.40
2009,03,31,14,50,23.10
2009,03,31,14,51,22.40
2009,03,31,14,52,26.30
2009,03,31,14,53,34.10
2009,03,31,14,54,26.60
2009,03,31,14,55,26.40
2009,03,31,14,56,34.90
2009,03,31,14,57,30.70
2009,03,31,14,58,31.00
2009,03,31,14,59,27.10
2009,03,31,15,00,29.20
2009,03,31,15,01,21.10
2009,03,31,15,02,25.20
2009,03,31,15,03,23.40
2009,03,31,15,04,18.00
2009,03,31,15,05,27.80
2009,03,31,15,06,20.00
2009,03,31,15,07,22.80
2009,03,31,15,08,29.40
2009,03,31,15,09,26.70
2009,03,31,15,10,20.50
2009,03,31,15,11,16.30
2009,03,31,15,12,21.40
2009,03,31,15,13,20.70
2009,03,31,15,14,26.10
2009,03,31,15,15,23.10
2009,03,31,15,16,32.50
2009,03,31,15,17,27.50
2009,03,31,15,18,16.10
2009,03,31,15,19,27.10
2009,03,31,15,20,26.20
2009,03,31,15,21,20.60
2009,03,31,15,22,29.70
2009,03,31,15,23,31.00
2009,03,31,15,24,20.80
2009,03,31,15,25,21.40
2009,03,31,15,26,25.20
2009,03,31,15,27,23.90
2009,03,31,15,28,30.40
2009,03,31,15,29,29.40
2009,03,31,15,30,18.20
2009,03,31,15,31,28.70
2009,03,31,15,32,25.50
2009,03,31,15,33,18.40
2009,03,31,15,34,20.20
2009,03,31,15,35,23.90
2009,03,31,15,36,23.70
2009,03,31,15,37,22.30
2009,03,31,15,38,26.70
2009,03,31,15,39,20.60
2009,03,31,15,40,21.60
2009,03,31,15,41,32.40
2009,03,31,15,42,24.50
2009,03,31,15,43,21.80
2009,03,31,15,44,18.70
2009,03,31,15,45,26.90
2009,03,31,15,46,17.50
2009,03,31,15,47,30.00
2009,03,31,15,48,24.50
2009,03,31,15,49,23.10
2009,03,31,15,50,29.10
2009,03,31,15,51,23.90
2009,03,31,15,52,24.50
2009,03,31,15,53,24.10
2009,03,31,15,54,26.00
2009,03,31,15,55,24.50
2009,03,31,15,56,31.60
2009,03,31,15,57,28.10
2009,03,31,15,58,30.80
2009,03,31,15,59,24.70
2009,03,31,16,00,17.40
2009,03,31,16,01,28.70
2009,03,31,16,02,19.60
2009,03,31,16,03,25.70
2009,03,31,16,04,26.30
2009,03,31,16,05,25.80
2009,03,31,16,06,22.90
2009,03,31,16,07,25.00
2009,03,31,16,08,15.70
2009,03,31,16,09,28.90
2009,03,31,16,10,22.00
2009,03,31,16,11,26.70
2009,03,31,16,12,21.60
2009,03,31,16,13,20.60
2009,03,31,16,14,25.90
2009,03,31,16,15,26.00
2009,03,31,16,16,26.20
2009,03,31,16,17,25.10
2009,03,31,16,18,29.20
2009,03,31,16,19,16.40
2009,03,31,16,20,26.10
2009,03,31,16,21,26.80
2009,03,31,16,22,20.50
2009,03,31,16,23,26.80
2009,03,31,16,24,21.90
2009,03,31,16,25,26.20
2009,03,31,16,26,22.20
2009,03,31,16,27,33.50
2009,03,31,16,28,22.30
2009,03,31,16,29,28.20
2009,03,31,16,30,19.30
2009,03,31,16,31,25.30
2009,03,31,16,32,28.50
2009,03,31,16,33,27.20
2009,03,31,16,34,18.50
2009,03,31,16,35,20.80
2009,03,31,16,36,24.00
2009,03,31,16,37,27.70
2009,03,31,16,38,28.90
2009,03,31,16,39,21.70
2009,03,31,16,40,29.90
2009,03,31,16,41,24.80
2009,03,31,16,42,16.20
2009,03,31,16,43,25.20
2009,03,31,16,44,17.30
2009,03,31,16,45,20.80
2009,03,31,16,46,21.30
2009,03,31,16,47,25.60
2009,03,31,16,48,31.50
2009,03,31,16,49,26.60
2009,03,31,16,50,22.80
2009,03,31,16,51,29.80
2009,03,31,16,52,27.60
2009,03,31,16,53,18.70
2009,03,31,16,54,22.10
2009,03,31,16,55,23.20
2009,03,31,16,56,24.50
2009,03,31,16,57,29.30
2009,03,31,16,58,28.00
2009,03,31,16,59,30.60
2009,03,31,17,00,27.60
2009,03,31,17,01,29.70
2009,03,31,17,02,24.70
2009,03,31,17,03,25.40
2009,03,31,17,04,21.90
2009,03,31,17,05,26.20
2009,03,31,17,06,31.80
2009,03,31,17,07,23.60
2009,03,31,17,08,25.40
2009,03,31,17,09,19.80
2009,03,31,17,10,30.40
2009,03,31,17,11,30.60
2009,03,31,17,12,21.30
2009,03,31,17,13,31.90
2009,03,31,17,14,30.00
2009,03,31,17,15,22.90
2009,03,31,17,16,23.00
2009,03,31,17,17,20.30
2009,03,31,17,18,25.20
2009,03,31,17,19,24.20
2009,03,31,17,20,28.00
2009,03,31,17,21,24.80
2009,03,31,17,22,32.70
2009,03,31,17,23,26.40
2009,03,31,17,24,21.80
2009,03,31,17,25,22.80
2009,03,31,17,26,26.50
2009,03,31,17,27,23.90
2009,03,31,17,28,19.40
2009,03,31,17,29,25.60
2009,03,31,17,30,22.80
2009,03,31,17,31,23.60
2009,03,31,17,32,20.00
2009,03,31,17,33,17.10
2009,03,31,17,34,25.40
2009,03,31,17,35,21.70
2009,03,31,17,36,27.60
2009,03,31,17,37,18.50
2009,03,31,17,38,13.30
2009,03,31,17,39,29.20
2009,03,31,17,40,21.00
2009,03,31,17,41,31.80